1510887600.34,32835,8.94,73770.3,-2.39,-4.61,-4.69,0,*5F
1510887601.57,32836,8.88,73766.5,-2.39,-4.61,-4.69,0,*5C
1510887602.8,32837,8.94,73768.0,-2.39,-4.61,-4.69,0,*5D
1510887604.03,32838,8.94,73768.3,-2.37,-4.57,-4.65,0,*55
1510887605.26,32839,8.88,73766.8,-2.37,-4.57,-4.65,0,*54
1510887606.49,32840,8.94,73768.8,-2.37,-4.57,-4.65,0,*5A
1510887607.74,32841,8.94,73770.5,-2.37,-4.53,-4.69,0,*53
1510887608.97,32842,8.94,73768.0,-2.37,-4.53,-4.65,0,*5C
1510887610.17,32843,8.94,73770.3,-2.35,-4.49,-4.61,0,*50
1510887611.39,32844,8.88,73764.0,-2.37,-4.53,-4.65,0,*5A
1510887612.65,32845,8.94,73770.0,-2.37,-4.57,-4.69,0,*53
1510887613.87,32846,8.88,73764.8,-2.37,-4.53,-4.65,0,*58
1510887615.1,32847,8.94,73768.8,-2.39,-4.61,-4.73,0,*51
1510887616.33,32848,8.94,73772.3,-2.39,-4.61,-4.69,0,*55
1510887617.59,32849,8.94,73770.3,-2.37,-4.57,-4.69,0,*5F
1510887618.81,32850,8.94,73770.3,-2.39,-4.61,-4.73,0,*57
1510887620.06,32851,8.94,73770.0,-2.37,-4.53,-4.69,0,*52
1510887621.32,32852,8.94,73770.5,-2.37,-4.57,-4.69,0,*55
1510887622.57,32853,8.94,73770.5,-2.37,-4.53,-4.69,0,*50
1510887623.8,32854,8.94,73768.5,-2.39,-4.61,-4.73,0,*53
1510887625.02,32855,8.94,73770.5,-2.39,-4.61,-4.73,0,*52
1510887626.25,32856,8.94,73772.3,-2.39,-4.57,-4.73,0,*54
1510887627.5,32857,8.88,73768.8,-2.37,-4.53,-4.69,0,*54
1510887628.76,32858,8.88,73764.8,-2.37,-4.57,-4.69,0,*5F
1510887630.02,32859,8.94,73764.3,-2.37,-4.57,-4.69,0,*5E
1510887631.27,32860,8.94,73764.8,-2.37,-4.65,-4.69,0,*55
1510887632.53,32861,8.94,73766.8,-2.37,-4.57,-4.69,0,*55
1510887633.76,32862,8.94,73770.8,-2.37,-4.57,-4.65,0,*5A
1510887634.98,32863,8.94,73766.3,-2.37,-4.53,-4.65,0,*5F
1510887636.22,32864,8.94,73764.3,-2.37,-4.57,-4.65,0,*5C
1510887637.47,32865,8.94,73764.3,-2.37,-4.57,-4.69,0,*51
1510887638.7,32866,8.88,73766.0,-2.37,-4.53,-4.65,0,*5A
1510887639.93,32867,8.88,73766.5,-2.37,-4.57,-4.65,0,*5F
1510887641.16,32868,8.94,73768.0,-2.37,-4.57,-4.65,0,*50
1510887642.42,32869,8.94,73764.5,-2.37,-4.57,-4.69,0,*5D
1510887643.67,32870,8.94,73764.0,-2.37,-4.53,-4.69,0,*51
1510887644.92,32871,8.94,73768.3,-2.37,-4.53,-4.69,0,*50
1510887646.15,32872,8.94,73766.3,-2.37,-4.57,-4.65,0,*5B
1510887647.4,32873,8.88,73764.3,-2.37,-4.53,-4.69,0,*52
1510887648.63,32874,8.94,73766.5,-2.37,-4.57,-4.65,0,*5D
1510887649.86,32875,8.88,73762.5,-2.37,-4.53,-4.65,0,*58
1510887651.11,32876,8.94,73764.8,-2.37,-4.57,-4.69,0,*53
1510887652.36,32877,8.94,73764.8,-2.41,-4.61,-4.73,0,*5D
1510887653.59,32878,8.94,73768.0,-2.39,-4.61,-4.69,0,*56
1510887654.82,32879,8.94,73766.8,-2.39,-4.57,-4.73,0,*59
1510887656.05,32880,8.94,73764.8,-2.39,-4.57,-4.69,0,*54
1510887657.28,32881,8.94,73764.8,-2.39,-4.61,-4.73,0,*5B
1510887658.53,32882,8.94,73766.8,-2.37,-4.53,-4.69,0,*5C
1510887659.76,32883,8.88,73764.5,-2.39,-4.57,-4.73,0,*5C
1510887661.02,32884,8.94,73768.3,-2.41,-4.57,-4.69,0,*5F
1510887662.25,32885,8.94,73770.5,-2.39,-4.57,-4.73,0,*5A
1510887663.48,32886,8.94,73768.3,-2.39,-4.57,-4.69,0,*52
1510887664.71,32887,8.94,73770.5,-2.39,-4.57,-4.69,0,*53
1510887665.94,32888,8.94,73766.8,-2.39,-4.57,-4.73,0,*57
1510887667.19,32889,8.88,73766.0,-2.41,-4.57,-4.73,0,*59
1510887668.42,32890,8.94,73770.3,-2.39,-4.49,-4.73,0,*51
1510887669.64,32891,8.94,73768.0,-2.39,-4.61,-4.73,0,*5A
1510887670.89,32892,8.94,73768.8,-2.37,-4.53,-4.69,0,*5D
1510887672.14,32893,8.94,73768.0,-2.37,-4.53,-4.69,0,*5C
1510887673.39,32894,8.94,73768.3,-2.37,-4.53,-4.69,0,*5B
1510887674.62,32895,8.88,73766.0,-2.39,-4.57,-4.73,0,*5B
1510887675.86,32896,8.94,73766.8,-2.39,-4.57,-4.69,0,*53
1510887677.09,32897,8.88,73766.3,-2.39,-4.57,-4.73,0,*59
1510887678.31,32898,8.88,73764.5,-2.39,-4.49,-4.69,0,*52
1510887679.56,32899,8.94,73764.3,-2.41,-4.49,-4.73,0,*57
1510887680.76,32900,8.94,73768.5,-2.39,-4.49,-4.61,0,*5A
1510887681.98,32901,8.94,73768.0,-2.39,-4.49,-4.69,0,*53
1510887683.21,32902,8.94,73768.8,-2.39,-4.45,-4.69,0,*5C
1510887684.44,32903,8.94,73770.0,-2.37,-4.41,-4.65,0,*5B
1510887685.66,32904,8.88,73766.5,-2.37,-4.45,-4.65,0,*58
1510887686.91,32905,8.94,73766.3,-2.37,-4.41,-4.69,0,*51
1510887688.16,32906,8.94,73764.3,-2.37,-4.41,-4.69,0,*52
1510887689.41,32907,8.94,73766.0,-2.37,-4.45,-4.69,0,*57
1510887690.65,32908,8.94,73766.5,-2.37,-4.45,-4.69,0,*58
1510887691.88,32909,8.88,73760.3,-2.37,-4.41,-4.65,0,*51
1510887693.14,32910,8.94,73768.0,-2.37,-4.41,-4.69,0,*55
1510887694.36,32911,8.88,73766.5,-2.37,-4.41,-4.57,0,*59
1510887695.59,32912,8.94,73766.3,-2.37,-4.45,-4.65,0,*5F
1510887696.79,32913,8.94,73766.3,-2.35,-4.41,-4.65,0,*58
1510887697.99,32914,8.94,73764.8,-2.35,-4.41,-4.65,0,*5F
1510887699.22,32915,8.94,73764.3,-2.39,-4.49,-4.69,0,*56
1510887700.44,32916,8.88,73762.0,-2.39,-4.49,-4.73,0,*5E
1510887701.69,32917,8.88,73764.0,-2.37,-4.41,-4.69,0,*52
1510887702.94,32918,8.88,73764.8,-2.37,-4.45,-4.69,0,*59
1510887704.19,32919,8.88,73764.0,-2.37,-4.53,-4.69,0,*5F
1510887705.41,32920,8.88,73766.3,-2.37,-4.53,-4.65,0,*59
1510887706.61,32921,8.94,73766.5,-2.35,-4.49,-4.61,0,*55
1510887707.86,32922,8.88,73766.0,-2.37,-4.45,-4.69,0,*50
1510887709.08,32923,8.88,73764.5,-2.39,-4.49,-4.73,0,*58
1510887710.28,32924,8.88,73764.8,-2.39,-4.45,-4.61,0,*50
1510887711.5,32925,8.94,73770.5,-2.39,-4.45,-4.69,0,*59
1510887712.73,32926,8.94,73770.0,-2.37,-4.41,-4.65,0,*5C
1510887713.96,32927,8.94,73766.5,-2.37,-4.41,-4.65,0,*5D
1510887715.18,32928,8.94,73766.3,-2.39,-4.45,-4.73,0,*5F
1510887716.4,32929,8.94,73766.5,-2.39,-4.45,-4.73,0,*5E
1510887717.63,32930,8.94,73764.5,-2.39,-4.57,-4.73,0,*55
1510887718.86,32931,8.88,73766.8,-2.39,-4.49,-4.69,0,*50
1510887720.08,32932,8.94,73764.8,-2.37,-4.45,-4.65,0,*5D
1510887721.33,32933,8.94,73768.8,-2.37,-4.41,-4.69,0,*54
1510887722.58,32934,8.94,73768.5,-2.37,-4.45,-4.69,0,*57
1510887723.82,32935,8.94,73770.0,-2.37,-4.45,-4.69,0,*56
1510887725.07,32936,8.88,73768.3,-2.37,-4.45,-4.69,0,*55
1510887726.3,32937,8.94,73770.8,-2.37,-4.41,-4.65,0,*5C
1510887727.55,32938,8.94,73774.0,-2.37,-4.41,-4.69,0,*5F
1510887728.8,32939,8.94,73768.5,-2.37,-4.45,-4.69,0,*5A
1510887730.05,32940,8.94,73770.8,-2.37,-4.41,-4.69,0,*50
1510887731.28,32941,8.94,73768.5,-2.37,-4.41,-4.65,0,*5D
1510887732.51,32942,8.94,73768.3,-2.37,-4.41,-4.65,0,*5E
1510887733.73,32943,8.88,73766.3,-2.39,-4.45,-4.69,0,*59
1510887734.98,32944,8.94,73774.0,-2.37,-4.45,-4.69,0,*50
1510887736.22,32945,8.88,73768.3,-2.37,-4.45,-4.69,0,*51
1510887737.47,32946,8.88,73770.5,-2.37,-4.45,-4.69,0,*52
1510887738.71,32947,8.88,73768.3,-2.37,-4.45,-4.69,0,*53
1510887739.91,32948,8.88,73768.5,-2.35,-4.49,-4.65,0,*5E
1510887741.16,32949,8.94,73770.0,-2.37,-4.53,-4.69,0,*5A
1510887742.42,32950,8.88,73766.5,-2.37,-4.57,-4.69,0,*56
1510887743.64,32951,8.94,73774.0,-2.37,-4.45,-4.65,0,*58
1510887744.89,32952,8.94,73770.8,-2.37,-4.45,-4.69,0,*57
1510887746.08,32953,8.88,73768.5,-2.35,-4.49,-4.65,0,*54
1510887747.28,32954,8.94,73768.3,-2.35,-4.53,-4.65,0,*58
1510887748.48,32955,8.88,73766.0,-2.35,-4.49,-4.65,0,*52
1510887749.73,32956,8.94,73770.5,-2.37,-4.53,-4.69,0,*54
1510887750.96,32957,8.88,73764.0,-2.39,-4.61,-4.73,0,*51
1510887752.19,32958,8.94,73768.5,-2.39,-4.57,-4.73,0,*5B
1510887753.42,32959,8.94,73770.8,-2.39,-4.61,-4.73,0,*5F
1510887754.65,32960,8.94,73770.0,-2.39,-4.57,-4.81,0,*5D
1510887755.88,32961,8.88,73764.3,-2.39,-4.61,-4.81,0,*59
1510887757.14,32962,8.88,73764.8,-2.37,-4.57,-4.69,0,*57
1510887758.37,32963,8.88,73766.8,-2.39,-4.57,-4.69,0,*58
1510887759.6,32964,8.94,73768.0,-2.39,-4.57,-4.73,0,*54
1510887760.83,32965,8.94,73768.0,-2.39,-4.57,-4.73,0,*55
1510887762.06,32966,8.94,73770.5,-2.39,-4.61,-4.73,0,*53
1510887763.31,32967,8.88,73760.5,-2.37,-4.53,-4.69,0,*56
1510887764.55,32968,8.94,73768.3,-2.37,-4.45,-4.69,0,*5E
1510887765.8,32969,8.94,73766.5,-2.37,-4.53,-4.69,0,*58
1510887767.05,32970,8.94,73770.3,-2.37,-4.53,-4.69,0,*50
1510887768.3,32971,8.88,73764.5,-2.37,-4.53,-4.69,0,*51
1510887769.55,32972,8.94,73768.3,-2.37,-4.41,-4.69,0,*51
1510887770.81,32973,8.88,73770.8,-2.37,-4.53,-4.69,0,*53
1510887772.03,32974,8.94,73768.0,-2.37,-4.53,-4.65,0,*58
1510887773.23,32975,8.94,73770.8,-2.35,-4.41,-4.65,0,*58
1510887774.48,32976,8.88,73766.3,-2.37,-4.53,-4.69,0,*56
1510887775.73,32977,8.94,73768.0,-2.37,-4.45,-4.69,0,*50
1510887776.98,32978,8.88,73768.8,-2.37,-4.53,-4.69,0,*58
1510887778.18,32979,8.88,73768.3,-2.35,-4.49,-4.65,0,*5C
1510887779.38,32980,8.88,73764.5,-2.35,-4.53,-4.65,0,*51
1510887780.6,32981,8.88,73766.8,-2.37,-4.53,-4.65,0,*52
1510887781.86,32982,8.88,73764.0,-2.37,-4.41,-4.69,0,*5E
1510887783.08,32983,8.94,73768.5,-2.37,-4.45,-4.65,0,*57
1510887784.33,32984,8.88,73770.5,-2.37,-4.53,-4.69,0,*5B
1510887785.58,32985,8.88,73766.3,-2.37,-4.53,-4.69,0,*5A
1510887786.8,32986,8.94,73768.5,-2.35,-4.49,-4.69,0,*50
1510887788.05,32987,8.88,73764.8,-2.37,-4.53,-4.69,0,*58
1510887789.3,32988,8.94,73770.5,-2.37,-4.53,-4.69,0,*57
1510887790.56,32989,8.94,73768.3,-2.37,-4.57,-4.81,0,*54
1510887791.81,32990,8.88,73766.3,-2.37,-4.57,-4.77,0,*55
1510887793.06,32991,8.88,73770.5,-2.37,-4.57,-4.77,0,*54
1510887794.31,32992,8.94,73770.3,-2.37,-4.57,-4.77,0,*57
1510887795.56,32993,8.88,73770.3,-2.37,-4.53,-4.69,0,*5D
1510887796.81,32994,8.94,73770.0,-2.37,-4.53,-4.69,0,*5A
1510887798.04,32995,8.88,73766.5,-2.37,-4.41,-4.65,0,*54
1510887799.29,32996,8.94,73770.5,-2.37,-4.45,-4.69,0,*5F
1510887800.52,32997,8.94,73768.8,-2.39,-4.57,-4.73,0,*58
1510887801.78,32998,8.94,73770.3,-2.37,-4.57,-4.69,0,*52
1510887803.03,32999,8.88,73766.5,-2.37,-4.57,-4.69,0,*53
1510887804.26,33000,8.88,73766.5,-2.39,-4.57,-4.73,0,*5E
1510887805.52,33001,8.88,73766.5,-2.37,-4.57,-4.81,0,*5C
1510887806.77,33002,8.88,73764.8,-2.37,-4.57,-4.77,0,*56
1510887808.02,33003,8.94,73764.3,-2.37,-4.65,-4.77,0,*56
1510887809.27,33004,8.94,73770.3,-2.37,-4.65,-4.77,0,*51
1510887810.52,33005,8.88,73764.5,-2.37,-4.65,-4.81,0,*59
1510887811.78,33006,8.88,73764.3,-2.37,-4.65,-4.81,0,*5A
1510887813.03,33007,8.94,73770.5,-2.37,-4.65,-4.81,0,*5B
1510887814.28,33008,8.88,73762.5,-2.37,-4.65,-4.81,0,*54
1510887815.51,33009,8.88,73762.8,-2.39,-4.61,-4.81,0,*5F
1510887816.76,33010,8.94,73764.3,-2.39,-4.69,-4.81,0,*5F
1510887817.98,33011,8.94,73764.3,-2.39,-4.45,-4.69,0,*56
1510887819.2,33012,8.88,73766.3,-2.37,-4.45,-4.65,0,*57
1510887820.43,33013,8.88,73764.3,-2.37,-4.41,-4.65,0,*52
1510887821.69,33014,8.94,73768.3,-2.37,-4.41,-4.69,0,*59
1510887822.94,33015,8.94,73770.0,-2.37,-4.53,-4.69,0,*5B
1510887824.16,33016,8.94,73768.5,-2.35,-4.53,-4.69,0,*5A
1510887825.42,33017,8.88,73762.8,-2.37,-4.57,-4.69,0,*5D
1510887826.67,33018,8.88,73764.5,-2.37,-4.53,-4.69,0,*56
1510887827.89,33019,8.94,73768.0,-2.37,-4.53,-4.65,0,*5B
1510887829.12,33020,8.88,73766.0,-2.37,-4.41,-4.57,0,*53
1510887830.35,33021,8.88,73768.3,-2.37,-4.41,-4.57,0,*52
1510887831.57,33022,8.88,73770.3,-2.37,-4.45,-4.65,0,*54
1510887832.79,33023,8.88,73770.8,-2.39,-4.45,-4.73,0,*5C
1510887834.02,33024,8.88,73770.8,-2.39,-4.49,-4.73,0,*57
1510887835.25,33025,8.88,73768.3,-2.39,-4.57,-4.73,0,*59
1510887836.5,33026,8.94,73770.8,-2.37,-4.53,-4.69,0,*5B
1510887837.69,33027,8.88,73770.5,-2.35,-4.53,-4.65,0,*54
1510887838.92,33028,8.88,73768.8,-2.35,-4.53,-4.73,0,*5C
1510887840.17,33029,8.88,73768.0,-2.37,-4.57,-4.77,0,*5F
1510887841.42,33030,8.94,73764.3,-2.37,-4.65,-4.77,0,*56
1510887842.67,33031,8.88,73764.8,-2.37,-4.65,-4.77,0,*57
1510887843.92,33032,8.88,73760.8,-2.37,-4.65,-4.77,0,*54
1510887845.17,33033,8.88,73762.0,-2.37,-4.65,-4.81,0,*5C
1510887846.4,33034,8.88,73762.0,-2.39,-4.61,-4.81,0,*51
1510887847.63,33035,8.88,73760.0,-2.39,-4.61,-4.81,0,*50
1510887848.86,33036,8.88,73758.3,-2.39,-4.61,-4.81,0,*53
1510887850.11,33037,8.88,73762.0,-2.39,-4.69,-4.81,0,*5A
1510887851.35,33038,8.88,73760.5,-2.39,-4.69,-4.81,0,*55
1510887852.6,33039,8.88,73758.5,-2.39,-4.69,-4.81,0,*54
1510887853.85,33040,8.88,73760.0,-2.39,-4.69,-4.81,0,*5A
1510887855.1,33041,8.88,73758.5,-2.39,-4.69,-4.81,0,*5B
1510887856.33,33042,8.88,73762.0,-2.39,-4.61,-4.81,0,*50
1510887857.56,33043,8.94,73760.3,-2.39,-4.61,-4.81,0,*51
1510887858.79,33044,8.88,73762.5,-2.39,-4.61,-4.81,0,*56
1510887860.01,33045,8.88,73758.0,-2.39,-4.61,-4.81,0,*57
1510887861.29,33046,8.88,73760.3,-2.41,-4.73,-4.81,0,*58
1510887862.53,33047,8.88,73756.0,-2.39,-4.69,-4.81,0,*5D
1510887863.78,33048,8.88,73748.8,-2.39,-4.69,-4.85,0,*56
1510887865.01,33049,8.88,73756.5,-2.39,-4.61,-4.81,0,*5B
1510887866.24,33050,8.88,73756.8,-2.39,-4.61,-4.81,0,*53
1510887867.47,33051,8.88,73758.3,-2.39,-4.57,-4.81,0,*57
1510887868.7,33052,8.88,73754.0,-2.39,-4.61,-4.81,0,*51
1510887869.95,33053,8.88,73754.3,-2.37,-4.57,-4.77,0,*52
1510887871.19,33054,8.88,73758.3,-2.39,-4.57,-4.81,0,*52
1510887872.42,33055,8.88,73760.3,-2.39,-4.57,-4.81,0,*53
1510887873.65,33056,8.88,73756.8,-2.39,-4.61,-4.81,0,*55
1510887874.88,33057,8.88,73756.3,-2.39,-4.61,-4.81,0,*54
1510887876.11,33058,8.88,73756.8,-2.39,-4.61,-4.81,0,*5B
1510887877.36,33059,8.88,73756.3,-2.41,-4.61,-4.81,0,*55
1510887878.59,33060,8.88,73756.3,-2.39,-4.57,-4.81,0,*55
1510887879.82,33061,8.88,73756.8,-2.39,-4.57,-4.69,0,*52
1510887881.07,33062,8.88,73756.3,-2.41,-4.57,-4.73,0,*55
1510887882.3,33063,8.88,73760.3,-2.39,-4.61,-4.73,0,*5E
1510887883.53,33064,8.88,73758.5,-2.39,-4.57,-4.73,0,*5C
1510887884.76,33065,8.88,73760.5,-2.37,-4.53,-4.65,0,*50
1510887885.99,33066,8.88,73760.5,-2.39,-4.57,-4.73,0,*5E
1510887887.22,33067,8.88,73756.8,-2.39,-4.57,-4.73,0,*5F
1510887888.45,33068,8.88,73758.3,-2.39,-4.57,-4.73,0,*50
1510887889.68,33069,8.94,73760.3,-2.39,-4.57,-4.73,0,*51
1510887890.91,33070,8.88,73760.0,-2.39,-4.61,-4.81,0,*51
1510887892.14,33071,8.88,73756.5,-2.39,-4.57,-4.81,0,*55
1510887893.37,33072,8.88,73758.3,-2.39,-4.57,-4.73,0,*5B
1510887894.6,33073,8.88,73762.5,-2.39,-4.61,-4.73,0,*5F
1510887895.82,33074,8.88,73760.5,-2.39,-4.49,-4.73,0,*52
1510887897.05,33075,8.88,73762.8,-2.39,-4.57,-4.73,0,*5C
1510887898.29,33076,8.88,73760.5,-2.39,-4.57,-4.69,0,*54
1510887899.53,33077,8.88,73762.0,-2.41,-4.61,-4.73,0,*54
1510887900.79,33078,8.88,73754.8,-2.41,-4.57,-4.69,0,*55
1510887902.01,33079,8.88,73758.3,-2.39,-4.61,-4.69,0,*5E
1510887903.24,33080,8.88,73758.3,-2.39,-4.61,-4.73,0,*53
1510887904.47,33081,8.88,73758.3,-2.39,-4.61,-4.73,0,*52
1510887905.7,33082,8.88,73754.5,-2.39,-4.61,-4.73,0,*51
1510887906.94,33083,8.88,73752.5,-2.41,-4.61,-4.73,0,*5F
1510887908.17,33084,8.88,73756.8,-2.39,-4.61,-4.73,0,*57
1510887909.4,33085,8.88,73756.3,-2.39,-4.57,-4.73,0,*53
1510887910.63,33086,8.88,73754.8,-2.39,-4.57,-4.73,0,*50
1510887911.88,33087,8.94,73758.3,-2.39,-4.69,-4.73,0,*5C
1510887913.1,33088,8.88,73754.0,-2.39,-4.61,-4.73,0,*5B
1510887914.33,33089,8.88,73756.5,-2.39,-4.61,-4.73,0,*5A
1510887915.57,33090,8.88,73756.0,-2.39,-4.69,-4.73,0,*5A
1510887916.8,33091,8.88,73758.3,-2.39,-4.61,-4.73,0,*53
1510887918.03,33092,8.88,73758.0,-2.39,-4.57,-4.73,0,*55
1510887919.26,33093,8.88,73756.8,-2.39,-4.57,-4.73,0,*54
1510887920.49,33094,8.88,73758.3,-2.39,-4.57,-4.73,0,*53
1510887921.72,33095,8.88,73760.3,-2.39,-4.57,-4.73,0,*52
1510887922.96,33096,8.88,73760.0,-2.39,-4.57,-4.73,0,*51
1510887924.18,33097,8.88,73762.0,-2.39,-4.49,-4.69,0,*54
1510887925.4,33098,8.88,73760.0,-2.39,-4.45,-4.73,0,*5C
1510887926.63,33099,8.88,73758.8,-2.39,-4.49,-4.73,0,*51
1510887927.86,33100,8.88,73764.0,-2.39,-4.57,-4.69,0,*54
1510887929.1,33101,8.88,73760.8,-2.41,-4.49,-4.69,0,*55
1510887930.33,33102,8.88,73764.0,-2.39,-4.49,-4.73,0,*52
1510887931.55,33103,8.88,73762.0,-2.39,-4.49,-4.69,0,*58
1510887932.78,33104,8.88,73760.3,-2.39,-4.37,-4.73,0,*5D
1510887934.03,33105,8.88,73758.8,-2.41,-4.61,-4.69,0,*5B
1510887935.23,33106,8.88,73766.5,-2.39,-4.45,-4.61,0,*59
1510887936.47,33107,8.88,73762.0,-2.41,-4.45,-4.73,0,*54
1510887937.71,33108,8.88,73762.0,-2.41,-4.49,-4.73,0,*57
1510887938.93,33109,8.88,73762.8,-2.39,-4.49,-4.73,0,*59
1510887940.16,33110,8.88,73762.8,-2.39,-4.49,-4.73,0,*51
1510887941.38,33111,8.94,73766.3,-2.39,-4.49,-4.69,0,*5B
1510887942.62,33112,8.88,73764.0,-2.41,-4.45,-4.73,0,*50
1510887943.87,33113,8.88,73762.8,-2.41,-4.49,-4.69,0,*56
1510887945.09,33114,8.88,73760.5,-2.39,-4.49,-4.69,0,*5E
1510887946.34,33115,8.88,73762.5,-2.41,-4.49,-4.69,0,*50
1510887947.58,33116,8.88,73760.0,-2.41,-4.49,-4.73,0,*58
1510887948.81,33117,8.88,73760.5,-2.39,-4.49,-4.73,0,*56
1510887950.03,33118,8.88,73762.3,-2.39,-4.49,-4.69,0,*52
1510887951.26,33119,8.88,73762.8,-2.39,-4.37,-4.69,0,*5A
1510887952.49,33120,8.88,73764.5,-2.39,-4.49,-4.69,0,*59
1510887953.73,33121,8.88,73766.3,-2.41,-4.45,-4.69,0,*5B
1510887954.95,33122,8.88,73760.5,-2.39,-4.49,-4.73,0,*50
1510887956.15,33123,8.88,73764.8,-2.39,-4.45,-4.61,0,*5E
1510887957.38,33124,8.94,73766.8,-2.39,-4.49,-4.69,0,*5D
1510887958.62,33125,8.88,73764.8,-2.41,-4.45,-4.69,0,*5F
1510887959.86,33126,8.88,73766.0,-2.41,-4.45,-4.73,0,*57
1510887961.08,33127,8.88,73762.0,-2.39,-4.45,-4.69,0,*52
1510887962.3,33128,8.88,73766.8,-2.41,-4.45,-4.61,0,*5A
1510887963.52,33129,8.88,73762.8,-2.39,-4.49,-4.73,0,*5B
1510887964.75,33130,8.88,73762.0,-2.39,-4.49,-4.73,0,*53
1510887965.97,33131,8.88,73762.0,-2.39,-4.49,-4.73,0,*52
1510887967.2,33132,8.88,73762.0,-2.39,-4.49,-4.69,0,*5A
1510887968.44,33133,8.88,73762.5,-2.41,-4.49,-4.73,0,*5F
1510887969.66,33134,8.88,73760.8,-2.39,-4.49,-4.73,0,*57
1510887970.89,33135,8.88,73760.0,-2.39,-4.49,-4.73,0,*56
1510887972.12,33136,8.88,73762.0,-2.39,-4.57,-4.73,0,*5A
1510887973.35,33137,8.88,73760.8,-2.39,-4.57,-4.69,0,*50
1510887974.58,33138,8.88,73766.8,-2.39,-4.57,-4.73,0,*54
1510887975.81,33139,8.88,73764.0,-2.39,-4.57,-4.73,0,*55
1510887977.04,33140,8.88,73766.0,-2.39,-4.57,-4.81,0,*56
1510887978.28,33141,8.88,73764.0,-2.39,-4.57,-4.81,0,*57
1510887979.53,33142,8.88,73762.5,-2.41,-4.57,-4.81,0,*5B
1510887980.8,33143,8.88,73762.0,-2.41,-4.69,-4.81,0,*57
1510887982.03,33144,8.88,73758.0,-2.39,-4.61,-4.81,0,*57
1510887983.26,33145,8.88,73760.0,-2.39,-4.57,-4.81,0,*53
1510887984.49,33146,8.88,73762.8,-2.39,-4.57,-4.73,0,*5D
1510887985.71,33147,8.88,73762.5,-2.39,-4.49,-4.73,0,*53
1510887986.94,33148,8.88,73764.0,-2.39,-4.49,-4.73,0,*5C
1510887988.18,33149,8.88,73764.5,-2.41,-4.49,-4.73,0,*52
1510887989.41,33150,8.88,73766.3,-2.39,-4.57,-4.73,0,*5A
1510887990.66,33151,8.88,73762.8,-2.41,-4.57,-4.73,0,*54
1510887991.91,33152,8.88,73762.3,-2.41,-4.49,-4.73,0,*58
1510887993.13,33153,8.88,73764.3,-2.39,-4.49,-4.73,0,*56
1510887994.36,33154,8.88,73766.5,-2.39,-4.57,-4.73,0,*5E
1510887995.59,33155,8.88,73762.3,-2.39,-4.57,-4.81,0,*52
1510887996.82,33156,8.88,73766.0,-2.39,-4.49,-4.81,0,*5E
1510887998.07,33157,8.88,73766.8,-2.41,-4.49,-4.81,0,*50
1510887999.31,33158,8.88,73764.5,-2.41,-4.61,-4.81,0,*55
1510888000.55,33159,8.88,73764.0,-2.39,-4.57,-4.81,0,*5E
1510888001.78,33160,8.88,73764.0,-2.39,-4.57,-4.81,0,*54
1510888003.03,33161,8.88,73764.3,-2.41,-4.57,-4.81,0,*5A
1510888004.29,33162,8.88,73760.5,-2.41,-4.57,-4.81,0,*59
1510888005.52,33163,8.88,73764.5,-2.39,-4.61,-4.81,0,*52
1510888006.75,33164,8.88,73764.5,-2.39,-4.57,-4.81,0,*50
1510888007.97,33165,8.88,73760.3,-2.39,-4.49,-4.73,0,*53
1510888009.21,33166,8.88,73764.5,-2.41,-4.49,-4.73,0,*5F
1510888010.45,33167,8.88,73766.3,-2.39,-4.57,-4.73,0,*5E
1510888011.68,33168,8.88,73764.0,-2.39,-4.57,-4.85,0,*58
1510888012.91,33169,8.88,73762.5,-2.39,-4.57,-4.81,0,*5D
1510888014.14,33170,8.88,73762.3,-2.39,-4.61,-4.81,0,*50
1510888015.37,33171,8.88,73766.0,-2.39,-4.61,-4.81,0,*51
1510888016.6,33172,8.88,73766.8,-2.39,-4.57,-4.81,0,*57
1510888017.84,33173,8.88,73764.8,-2.39,-4.57,-4.81,0,*56
1510888019.07,33174,8.88,73766.5,-2.39,-4.57,-4.85,0,*55
1510888020.3,33175,8.88,73762.0,-2.39,-4.49,-4.81,0,*5F
1510888021.52,33176,8.88,73764.3,-2.39,-4.49,-4.81,0,*5C
1510888022.77,33177,8.88,73766.0,-2.41,-4.61,-4.81,0,*58
1510888024.02,33178,8.88,73766.5,-2.41,-4.61,-4.85,0,*53
1510888025.25,33179,8.88,73766.8,-2.39,-4.61,-4.85,0,*5D
1510888026.5,33180,8.88,73766.8,-2.41,-4.61,-4.85,0,*54
1510888027.73,33181,8.88,73766.0,-2.39,-4.61,-4.85,0,*5A
1510888028.96,33182,8.88,73766.3,-2.39,-4.61,-4.81,0,*5D
1510888030.21,33183,8.88,73764.0,-2.39,-4.69,-4.85,0,*50
1510888031.47,33184,8.88,73764.5,-2.41,-4.69,-4.85,0,*58
1510888032.7,33185,8.88,73760.3,-2.39,-4.61,-4.85,0,*5E
1510888033.95,33186,8.88,73766.0,-2.39,-4.69,-4.85,0,*55
1510888035.21,33187,8.88,73764.5,-2.41,-4.57,-4.85,0,*56
1510888036.45,33188,8.88,73760.3,-2.41,-4.61,-4.81,0,*58
1510888037.68,33189,8.88,73762.0,-2.39,-4.61,-4.81,0,*56
1510888038.91,33190,8.88,73760.0,-2.39,-4.61,-4.81,0,*5E
1510888040.16,33191,8.88,73760.5,-2.41,-4.61,-4.81,0,*50
1510888041.41,33192,8.88,73760.3,-2.41,-4.61,-4.81,0,*53
1510888042.64,33193,8.88,73764.8,-2.39,-4.57,-4.85,0,*5C
1510888043.88,33194,8.88,73766.5,-2.39,-4.57,-4.85,0,*5B
1510888045.13,33195,8.88,73764.3,-2.41,-4.57,-4.81,0,*51
1510888046.39,33196,8.88,73764.3,-2.37,-4.57,-4.81,0,*53
1510888047.64,33197,8.88,73766.0,-2.39,-4.69,-4.85,0,*55
1510888048.88,33198,8.88,73764.3,-2.39,-4.69,-4.85,0,*5A
1510888050.13,33199,8.88,73768.0,-2.39,-4.69,-4.89,0,*57
1510888051.38,33200,8.88,73766.5,-2.39,-4.73,-4.89,0,*5F
1510888052.64,33201,8.88,73760.5,-2.39,-4.73,-4.89,0,*5E
1510888053.9,33202,8.88,73764.5,-2.41,-4.69,-4.89,0,*59
1510888055.15,33203,8.88,73766.3,-2.39,-4.69,-4.89,0,*57
1510888056.4,33204,8.88,73762.0,-2.39,-4.69,-4.89,0,*50
1510888057.65,33205,8.88,73760.3,-2.39,-4.69,-4.89,0,*51
1510888058.92,33206,8.88,73764.3,-2.41,-4.69,-4.81,0,*55
1510888060.17,33207,8.88,73762.3,-2.39,-4.69,-4.89,0,*53
1510888061.42,33208,8.88,73764.0,-2.41,-4.61,-4.89,0,*5B
1510888062.69,33209,8.88,73764.8,-2.41,-4.69,-4.85,0,*5E
1510888063.93,33210,8.88,73762.0,-2.39,-4.69,-4.85,0,*59
1510888065.16,33211,8.88,73762.8,-2.39,-4.61,-4.85,0,*50
1510888066.43,33212,8.88,73764.0,-2.41,-4.69,-4.85,0,*54
1510888067.68,33213,8.88,73764.5,-2.39,-4.73,-4.85,0,*51
1510888068.93,33214,8.88,73764.5,-2.39,-4.69,-4.89,0,*51
1510888070.18,33215,8.88,73766.5,-2.41,-4.61,-4.89,0,*57
1510888071.43,33216,8.88,73762.5,-2.39,-4.73,-4.89,0,*58
1510888072.65,33217,8.88,73762.5,-2.39,-4.73,-4.99,0,*58
1510888073.91,33218,8.88,73762.0,-2.39,-4.73,-4.89,0,*56
1510888075.18,33219,8.88,73764.3,-2.41,-4.73,-4.89,0,*58
1510888076.45,33220,8.88,73764.5,-2.41,-4.73,-4.89,0,*52
1510888077.72,33221,8.88,73764.3,-2.41,-4.69,-4.89,0,*58
1510888078.96,33222,8.88,73766.0,-2.41,-4.73,-4.99,0,*51
1510888080.21,33223,8.88,73760.3,-2.39,-4.69,-4.89,0,*55
1510888081.46,33224,8.88,73766.8,-2.39,-4.69,-4.85,0,*5E
1510888082.71,33225,8.88,73766.3,-2.39,-4.73,-4.89,0,*58
1510888083.96,33226,8.88,73764.5,-2.39,-4.73,-4.85,0,*57
1510888085.23,33227,8.88,73762.5,-2.41,-4.69,-4.85,0,*52
1510888086.48,33228,8.88,73762.3,-2.39,-4.69,-4.89,0,*5E
1510888087.75,33229,8.88,73764.3,-2.41,-4.73,-4.85,0,*57
1510888089.02,33230,8.88,73760.3,-2.41,-4.73,-4.89,0,*53
1510888090.27,33231,8.88,73764.3,-2.39,-4.73,-4.81,0,*55
1510888091.52,33232,8.88,73764.5,-2.39,-4.69,-4.81,0,*5D
1510888092.77,33233,8.88,73764.3,-2.41,-4.61,-4.81,0,*5B
1510888094.04,33234,8.88,73764.5,-2.41,-4.69,-4.85,0,*50
1510888095.3,33235,8.88,73764.0,-2.41,-4.69,-4.85,0,*51
1510888096.55,33236,8.88,73764.3,-2.39,-4.69,-4.81,0,*59
1510888097.8,33237,8.88,73766.8,-2.41,-4.61,-4.81,0,*5F
1510888099.05,33238,8.88,73766.5,-2.39,-4.69,-4.81,0,*57
1510888100.3,33239,8.88,73760.5,-2.39,-4.69,-4.85,0,*52
1510888101.56,33240,8.88,73766.8,-2.41,-4.69,-4.85,0,*53
1510888102.84,33241,8.88,73766.0,-2.41,-4.73,-4.85,0,*59
1510888104.1,33242,8.88,73764.5,-2.41,-4.69,-4.85,0,*51
1510888105.35,33243,8.88,73762.3,-2.39,-4.69,-4.85,0,*5F
1510888106.6,33244,8.88,73760.5,-2.41,-4.61,-4.85,0,*5F
1510888107.87,33245,8.88,73766.8,-2.41,-4.69,-4.85,0,*56
1510888109.14,33246,8.88,73764.0,-2.41,-4.69,-4.81,0,*51
1510888110.37,33247,8.88,73768.5,-2.39,-4.61,-4.81,0,*57
1510888111.63,33248,8.88,73764.5,-2.41,-4.69,-4.81,0,*5F
1510888112.86,33249,8.88,73764.5,-2.39,-4.61,-4.81,0,*59
1510888114.13,33250,8.88,73760.5,-2.41,-4.69,-4.81,0,*56
1510888115.4,33251,8.88,73766.0,-2.41,-4.69,-4.81,0,*57
1510888116.67,33252,8.88,73764.3,-2.41,-4.73,-4.85,0,*5B
1510888117.94,33253,8.88,73764.3,-2.41,-4.73,-4.85,0,*5A
1510888119.19,33254,8.88,73762.3,-2.39,-4.69,-4.85,0,*59
1510888120.44,33255,8.88,73764.0,-2.39,-4.69,-4.81,0,*5C